This demonstration page uses our WeatherBlox Daily Observations layout. Learn more.

Left ArrowRight Arrow

Hourly Observations for July 12, 2021

Temp ( °F °C ) Dew Point ( °F °C ) Humidity (%) Winds ( mph kmh ) Pressure ( in mb ) Visibility ( mi km ) Precip ( " mm )
12:53 am 00:53 Clear 53 11.7 46 7.8 77 77 WSW 3 6 30.05 1018 10 16 0.00 0.00
1:53 am 01:53 Clear 53 11.7 46 7.8 77 77 SW 7 11 30.05 1018 10 16 0.00 0.00
2:53 am 02:53 Clear 53 11.7 47 8.3 80 80 Calm 30.06 1018 10 16 0.00 0.00
3:53 am 03:53 Clear 49 9.4 45 7.2 86 86 SE 3 6 30.07 1018 10 16 0.00 0.00
4:53 am 04:53 Clear 50 10 44 6.7 80 80 S 3 6 30.10 1019 10 16 0.00 0.00
5:53 am 05:53 Sunny 51 10.6 46 7.8 83 83 ENE 5 7 30.12 1020 10 16 0.00 0.00
6:53 am 06:53 Sunny 56 13.3 47 8.3 72 72 ENE 3 6 30.11 1020 10 16 0.00 0.00
7:53 am 07:53 Mostly Sunny 63 17.2 48 8.9 58 58 Calm 30.11 1020 10 16 0.00 0.00
8:53 am 08:53 Sunny 71 21.7 49 9.4 46 46 NE 8 13 30.09 1019 10 16 0.00 0.00
9:53 am 09:53 Mostly Sunny 74 23.3 48 8.9 40 40 E 8 13 30.10 1019 10 16 0.00 0.00
10:53 am 10:53 Sunny 78 25.6 46 7.8 32 32 E 10 17 30.10 1019 10 16 0.00 0.00
11:53 am 11:53 Sunny 80 26.7 46 7.8 30 30 E 10 17 30.08 1019 10 16 0.00 0.00
12:53 pm 12:53 Sunny 84 28.9 42 5.6 23 23 E 10 17 30.07 1018 10 16 0.00 0.00
1:53 pm 13:53 Sunny 85 29.4 42 5.6 22 22 ENE 14 22 30.06 1018 10 16 0.00 0.00
2:53 pm 14:53 Sunny 87 30.6 42 5.6 21 21 ENE 14 22 30.04 1017 10 16 0.00 0.00
3:53 pm 15:53 Sunny 88 31.1 42 5.6 20 20 ESE 14 22 30.03 1017 10 16 0.00 0.00
4:53 pm 16:53 Sunny 87 30.6 42 5.6 21 21 E 8 13 30.03 1017 10 16 0.00 0.00
5:53 pm 17:53 Sunny 87 30.6 43 6.1 21 21 ESE 12 19 30.02 1017 10 16 0.00 0.00
6:53 pm 18:53 Sunny 86 30 43 6.1 22 22 E 15 24 30.00 1016 10 16 0.00 0.00
7:53 pm 19:53 Sunny 84 28.9 43 6.1 24 24 E 16 26 29.99 1016 10 16 0.00 0.00
8:53 pm 20:53 Sunny 80 26.7 44 6.7 28 28 E 10 17 29.99 1016 10 16 0.00 0.00
9:53 pm 21:53 Clear 74 23.3 47 8.3 38 38 E 10 17 30.01 1016 10 16 0.00 0.00
10:53 pm 22:53 Clear 71 21.7 45 7.2 39 39 ENE 9 15 30.02 1017 10 16 0.00 0.00
11:53 pm 23:53 Clear 69 20.6 46 7.8 44 44 E 14 22 30.02 1017 10 16 0.00 0.00

Powered by AerisWeather